| time (UTC) | temp F | wind direction | speed knots | gust knots | rain 1hr in | rain 24hr in | rain mn in | humidity % | barometer mb |
| 20260505084322 | 53 | 150 | 0.0 | 1.7 | 0.08 | 0.16 | 0.03 | 89 | 1014.5 |
| 20260505083842 | 53 | 162 | 0.9 | 1.7 | 0.04 | 0.12 | 0.02 | 88 | 1014.6 |
| 20260505083321 | 53 | 184 | 0.9 | 1.7 | 0.04 | 0.12 | 0.02 | 88 | 1014.8 |
| 20260505082819 | 53 | 228 | 0.0 | 1.7 | 0.08 | 0.12 | 0.02 | 87 | 1014.7 |
| 20260505082319 | 53 | 228 | 0.9 | 2.6 | 0.08 | 0.12 | 0.02 | 87 | 1014.7 |
| 20260505081820 | 53 | 246 | 0.9 | 3.5 | 0.04 | 0.08 | 0.02 | 86 | 1014.7 |
| 20260505081320 | 53 | 229 | 1.7 | 2.6 | 0.08 | 0.08 | 0.02 | 85 | 1014.7 |
| 20260505080821 | 53 | 248 | 1.7 | 1.7 | 0.08 | 0.08 | 0.02 | 85 | 1014.7 |
| 20260505080320 | 53 | 140 | 0.9 | 2.6 | 0.08 | 0.08 | 0.02 | 85 | 1014.7 |
| 20260505075819 | 53 | 138 | 0.9 | 2.6 | 0.08 | 0.08 | 0.02 | 84 | 1014.7 |
| 20260505075316 | 53 | 182 | 0.0 | 0.0 | 0.08 | 0.08 | 0.02 | 81 | 1014.6 |
| 20260505074844 | 53 | 182 | 0.0 | 0.0 | 0.08 | 0.08 | 0.02 | 82 | 1014.7 |
| 20260505074324 | 53 | 99 | 0.0 | 2.6 | 0.08 | 0.08 | 0.02 | 80 | 1014.8 |
| 20260505073840 | 54 | 99 | 0.0 | 2.6 | 0.08 | 0.08 | 0.02 | 82 | 1014.7 |
| 20260505073356 | 54 | 113 | 0.9 | 2.6 | 0.08 | 0.08 | 0.02 | 81 | 1014.7 |
| 20260505072855 | 54 | 48 | 0.9 | 2.6 | 0.04 | 0.04 | 0.01 | 79 | 1014.7 |
| 20260505072355 | 54 | 35 | 1.7 | 2.6 | 0.04 | 0.04 | 0.01 | 78 | 1014.8 |
| 20260505071832 | 54 | 340 | 0.9 | 2.6 | 0.04 | 0.04 | 0.01 | 77 | 1014.8 |
| 20260505071329 | 54 | 33 | 0.9 | 1.7 | 0.00 | 0.00 | 0.00 | 78 | 1014.6 |
| 20260505070848 | 54 | 97 | 0.9 | 2.6 | 0.00 | 0.00 | 0.00 | 80 | 1014.5 |
| 20260505070327 | 54 | 97 | 1.7 | 2.6 | 0.00 | 0.00 | 0.00 | 82 | 1014.5 |
| 20260505065825 | 54 | 121 | 1.7 | 3.5 | 0.00 | 0.00 | 0.00 | 81 | 1014.3 |
| 20260505065325 | 55 | 188 | 1.7 | 4.3 | 0.00 | 0.00 | 0.00 | 83 | 1014.3 |
| 20260505064823 | 55 | 173 | 1.7 | 5.2 | 0.00 | 0.00 | 0.00 | 80 | 1014.2 |
| 20260505064323 | 55 | 259 | 3.5 | 5.2 | 0.00 | 0.00 | 0.00 | 81 | 1014.2 |
| 20260505063819 | 55 | 237 | 3.5 | 4.3 | 0.00 | 0.00 | 0.00 | 79 | 1014.3 |
| 20260505063319 | 56 | 234 | 1.7 | 3.5 | 0.00 | 0.00 | 0.00 | 75 | 1014.2 |
| 20260505062817 | 56 | 280 | 1.7 | 3.5 | 0.00 | 0.00 | 0.00 | 73 | 1014.4 |
| 20260505062334 | 56 | 325 | 0.9 | 1.7 | 0.00 | 0.00 | 0.00 | 69 | 1014.2 |
| 20260505061833 | 56 | 77 | 0.9 | 1.7 | 0.00 | 0.00 | 0.00 | 68 | 1014.3 |
| 20260505061352 | 56 | 90 | 0.9 | 1.7 | 0.00 | 0.00 | 0.00 | 71 | 1014.3 |
| 20260505060830 | 56 | 89 | 0.9 | 1.7 | 0.00 | 0.00 | 0.00 | 69 | 1014.2 |
| 20260505060330 | 56 | 348 | 0.9 | 2.6 | 0.00 | 0.00 | 0.00 | 68 | 1014.1 |
| 20260505055829 | 56 | 136 | 0.9 | 2.6 | 0.00 | 0.00 | 0.00 | 68 | 1014.2 |
| 20260505055329 | 56 | 313 | 0.0 | 1.7 | 0.00 | 0.00 | 0.00 | 66 | 1014.1 |
| 20260505054829 | 56 | 313 | 0.9 | 1.7 | 0.00 | 0.00 | 0.00 | 66 | 1014.0 |
| 20260505054329 | 56 | 92 | 1.7 | 1.7 | 0.00 | 0.00 | 0.00 | 67 | 1014.1 |
| 20260505053827 | 56 | 292 | 0.0 | 1.7 | 0.00 | 0.00 | 0.00 | 69 | 1013.8 |
| 20260505053326 | 56 | 329 | 0.0 | 1.7 | 0.00 | 0.00 | 0.00 | 68 | 1013.9 |
| 20260505052825 | 57 | 269 | 0.9 | 2.6 | 0.00 | 0.00 | 0.00 | 67 | 1013.9 |
| 20260505052326 | 57 | 111 | 1.7 | 4.3 | 0.00 | 0.00 | 0.00 | 67 | 1013.7 |
| 20260505051844 | 57 | 145 | 1.7 | 7.0 | 0.00 | 0.00 | 0.00 | 68 | 1013.9 |
| 20260505051324 | 57 | 162 | 1.7 | 7.0 | 0.00 | 0.00 | 0.00 | 68 | 1013.9 |
| 20260505050845 | 57 | 204 | 1.7 | 7.8 | 0.00 | 0.00 | 0.00 | 68 | 1013.9 |
| 20260505050323 | 57 | 296 | 2.6 | 10.4 | 0.00 | 0.00 | 0.00 | 67 | 1013.6 |
| 20260505041347 | 56 | 195 | 1.7 | 4.3 | 0.00 | 0.00 | 0.00 | 65 | 1014.0 |
| 20260505040845 | 57 | 197 | 2.6 | 5.2 | 0.00 | 0.00 | 0.00 | 64 | 1014.1 |
| 20260505040322 | 56 | 208 | 2.6 | 5.2 | 0.00 | 0.00 | 0.00 | 62 | 1014.1 |
| 20260505035838 | 56 | 278 | 0.9 | 2.6 | 0.00 | 0.00 | 0.00 | 61 | 1014.1 |
| 20260505035358 | 56 | 332 | 1.7 | 2.6 | 0.00 | 0.00 | 0.00 | 60 | 1014.0 |
| 20260505034855 | 56 | 327 | 1.7 | 2.6 | 0.00 | 0.00 | 0.00 | 60 | 1014.0 |
| 20260505034314 | 57 | 186 | 0.0 | 2.6 | 0.00 | 0.00 | 0.00 | 60 | 1014.0 |
| 20260505033833 | 57 | 184 | 1.7 | 2.6 | 0.00 | 0.00 | 0.00 | 59 | 1014.1 |
| 20260505033330 | 57 | 16 | 0.9 | 2.6 | 0.00 | 0.00 | 0.00 | 59 | 1014.1 |
| 20260505032830 | 56 | 315 | 1.7 | 5.2 | 0.00 | 0.00 | 0.00 | 59 | 1014.2 |
| 20260505032330 | 56 | 284 | 2.6 | 5.2 | 0.00 | 0.00 | 0.00 | 60 | 1014.1 |
| 20260505031850 | 56 | 241 | 2.6 | 5.2 | 0.00 | 0.00 | 0.00 | 60 | 1014.3 |
| 20260505031348 | 56 | 232 | 2.6 | 5.2 | 0.00 | 0.00 | 0.00 | 60 | 1014.1 |
| 20260505030826 | 56 | 248 | 2.6 | 3.5 | 0.00 | 0.00 | 0.00 | 60 | 1014.3 |
| 20260505030325 | 57 | 217 | 2.6 | 3.5 | 0.00 | 0.00 | 0.00 | 59 | 1014.3 |
| 20260505025823 | 57 | 291 | 0.0 | 5.2 | 0.00 | 0.00 | 0.00 | 59 | 1014.5 |
| 20260505025324 | 57 | 291 | 2.6 | 5.2 | 0.00 | 0.00 | 0.00 | 60 | 1014.5 |
| 20260505024841 | 56 | 286 | 0.9 | 3.5 | 0.00 | 0.00 | 0.00 | 60 | 1014.5 |
| 20260505024321 | 56 | 275 | 2.6 | 3.5 | 0.00 | 0.00 | 0.00 | 60 | 1014.6 |
| 20260505023839 | 56 | 283 | 0.9 | 3.5 | 0.00 | 0.00 | 0.00 | 60 | 1014.7 |
| 20260505023316 | 56 | 246 | 2.6 | 3.5 | 0.00 | 0.00 | 0.00 | 60 | 1014.7 |
| 20260505022816 | 56 | 281 | 2.6 | 3.5 | 0.00 | 0.00 | 0.00 | 60 | 1014.7 |
| 20260505022316 | 57 | 236 | 1.7 | 4.3 | 0.00 | 0.00 | 0.00 | 60 | 1014.7 |
| 20260505021817 | 57 | 148 | 1.7 | 4.3 | 0.00 | 0.00 | 0.00 | 58 | 1014.8 |
| 20260505021317 | 57 | 234 | 0.0 | 4.3 | 0.00 | 0.00 | 0.00 | 58 | 1014.8 |
| 20260505020817 | 57 | 229 | 1.7 | 4.3 | 0.00 | 0.00 | 0.00 | 58 | 1014.8 |
| 20260505020315 | 57 | 304 | 0.9 | 2.6 | 0.00 | 0.00 | 0.00 | 59 | 1014.8 |
| 20260505015815 | 57 | 306 | 0.9 | 6.1 | 0.00 | 0.00 | 0.00 | 58 | 1014.9 |
| 20260505015334 | 57 | 348 | 2.6 | 6.1 | 0.00 | 0.00 | 0.00 | 58 | 1014.9 |
| 20260505014814 | 57 | 290 | 1.7 | 3.5 | 0.00 | 0.00 | 0.00 | 58 | 1014.9 |
| 20260505014334 | 57 | 238 | 1.7 | 5.2 | 0.00 | 0.00 | 0.00 | 58 | 1014.9 |
| 20260505013834 | 57 | 335 | 1.7 | 4.3 | 0.00 | 0.00 | 0.00 | 58 | 1015.0 |
| 20260505013333 | 57 | 254 | 1.7 | 4.3 | 0.00 | 0.00 | 0.00 | 58 | 1015.1 |
| 20260505012833 | 57 | 311 | 0.9 | 3.5 | 0.00 | 0.00 | 0.00 | 59 | 1015.1 |
| 20260505012332 | 57 | 198 | 0.9 | 1.7 | 0.00 | 0.00 | 0.00 | 59 | 1015.2 |
| 20260505011852 | 57 | 259 | 0.9 | 2.6 | 0.00 | 0.00 | 0.00 | 59 | 1015.3 |
| 20260505011330 | 57 | 297 | 1.7 | 2.6 | 0.00 | 0.00 | 0.00 | 59 | 1015.2 |
| 20260505010830 | 56 | 275 | 0.9 | 3.5 | 0.00 | 0.00 | 0.00 | 59 | 1015.5 |
| 20260505010328 | 56 | 286 | 1.7 | 3.5 | 0.00 | 0.00 | 0.00 | 60 | 1015.6 |
| 20260505005827 | 57 | 281 | 1.7 | 2.6 | 0.00 | 0.00 | 0.00 | 60 | 1015.6 |
| 20260505005326 | 57 | 298 | 1.7 | 2.6 | 0.00 | 0.00 | 0.00 | 59 | 1015.8 |
| 20260505004840 | 57 | 291 | 1.7 | 3.5 | 0.00 | 0.00 | 0.00 | 58 | 1015.9 |
| 20260505004319 | 57 | 314 | 1.7 | 3.5 | 0.00 | 0.00 | 0.00 | 58 | 1015.9 |
| 20260505003820 | 57 | 276 | 1.7 | 3.5 | 0.00 | 0.00 | 0.00 | 58 | 1016.1 |
| 20260505003340 | 57 | 315 | 0.9 | 4.3 | 0.00 | 0.00 | 0.00 | 58 | 1016.1 |
| 20260505002818 | 57 | 306 | 2.6 | 4.3 | 0.00 | 0.00 | 0.00 | 58 | 1016.1 |
| 20260505002318 | 57 | 295 | 2.6 | 5.2 | 0.00 | 0.00 | 0.00 | 59 | 1016.2 |
| 20260505001815 | 57 | 280 | 4.3 | 5.2 | 0.00 | 0.00 | 0.00 | 59 | 1016.3 |
| 20260505001315 | 57 | 269 | 3.5 | 5.2 | 0.00 | 0.00 | 0.00 | 56 | 1016.4 |
| 20260505000815 | 57 | 291 | 2.6 | 4.3 | 0.00 | 0.00 | 0.00 | 58 | 1016.5 |
| 20260505000314 | 57 | 291 | 1.7 | 2.6 | 0.00 | 0.00 | 0.00 | 57 | 1016.6 |
| 20260504235813 | 57 | 284 | 0.9 | 1.7 | 0.00 | 0.00 | 0.00 | 57 | 1016.6 |
| 20260504235333 | 57 | 42 | 0.9 | 2.6 | 0.00 | 0.00 | 0.00 | 57 | 1016.5 |
| 20260504234813 | 57 | 324 | 1.7 | 2.6 | 0.00 | 0.00 | 0.00 | 57 | 1016.7 |
| 20260504234332 | 57 | 333 | 0.0 | 1.7 | 0.00 | 0.00 | 0.00 | 57 | 1016.7 |
| 20260504233832 | 57 | 333 | 0.9 | 2.6 | 0.00 | 0.00 | 0.00 | 57 | 1016.7 |
| 20260504233329 | 57 | 282 | 1.7 | 2.6 | 0.00 | 0.00 | 0.00 | 56 | 1016.8 |
| 20260504232826 | 57 | 300 | 1.7 | 3.5 | 0.00 | 0.00 | 0.00 | 56 | 1016.8 |
| 20260504232326 | 57 | 295 | 1.7 | 3.5 | 0.00 | 0.00 | 0.00 | 55 | 1016.8 |
| 20260504231827 | 57 | 296 | 2.6 | 3.5 | 0.00 | 0.00 | 0.00 | 56 | 1017.0 |
| 20260504231326 | 57 | 313 | 1.7 | 2.6 | 0.00 | 0.00 | 0.00 | 55 | 1016.9 |
| 20260504230823 | 57 | 284 | 1.7 | 3.5 | 0.00 | 0.00 | 0.00 | 55 | 1016.9 |
| 20260504230344 | 57 | 302 | 1.7 | 3.5 | 0.00 | 0.00 | 0.00 | 54 | 1017.0 |
| 20260504225823 | 57 | 300 | 2.6 | 3.5 | 0.00 | 0.00 | 0.00 | 55 | 1017.0 |
| 20260504225325 | 57 | 279 | 1.7 | 3.5 | 0.00 | 0.00 | 0.00 | 54 | 1017.1 |
| 20260504224823 | 57 | 296 | 2.6 | 3.5 | 0.00 | 0.00 | 0.00 | 54 | 1017.2 |
| 20260504224323 | 57 | 306 | 1.7 | 3.5 | 0.00 | 0.00 | 0.00 | 54 | 1017.1 |
| 20260504223822 | 57 | 323 | 2.6 | 3.5 | 0.00 | 0.00 | 0.00 | 54 | 1017.2 |
| 20260504223321 | 57 | 292 | 1.7 | 3.5 | 0.00 | 0.00 | 0.00 | 54 | 1017.3 |
| 20260504222841 | 57 | 285 | 0.9 | 3.5 | 0.00 | 0.00 | 0.00 | 54 | 1017.4 |
| 20260504222319 | 57 | 294 | 1.7 | 3.5 | 0.00 | 0.00 | 0.00 | 53 | 1017.3 |
| 20260504221819 | 57 | 322 | 1.7 | 2.6 | 0.00 | 0.00 | 0.00 | 53 | 1017.4 |
| 20260504221320 | 57 | 288 | 0.0 | 2.6 | 0.00 | 0.00 | 0.00 | 53 | 1017.5 |
| 20260504220819 | 57 | 284 | 1.7 | 2.6 | 0.00 | 0.00 | 0.00 | 53 | 1017.4 |
| 20260504220336 | 57 | 309 | 0.9 | 2.6 | 0.00 | 0.00 | 0.00 | 53 | 1017.4 |
| 20260504215829 | 58 | 304 | 1.7 | 2.6 | 0.00 | 0.00 | 0.00 | 54 | 1017.3 |
| 20260504215328 | 58 | 5 | 0.0 | 1.7 | 0.00 | 0.00 | 0.00 | 53 | 1017.5 |
| 20260504214826 | 58 | 348 | 0.0 | 1.7 | 0.00 | 0.00 | 0.00 | 52 | 1017.4 |
| 20260504214348 | 58 | 355 | 0.0 | 1.7 | 0.00 | 0.00 | 0.00 | 51 | 1017.4 |
| 20260504213825 | 58 | 319 | 0.9 | 1.7 | 0.00 | 0.00 | 0.00 | 52 | 1017.5 |
| 20260504213324 | 58 | 325 | 0.9 | 1.7 | 0.00 | 0.00 | 0.00 | 52 | 1017.5 |
| 20260504212824 | 58 | 325 | 0.0 | 2.6 | 0.00 | 0.00 | 0.00 | 51 | 1017.6 |
| 20260504212324 | 58 | 325 | 0.0 | 2.6 | 0.00 | 0.00 | 0.00 | 53 | 1017.6 |
| 20260504211822 | 59 | 320 | 1.7 | 2.6 | 0.00 | 0.00 | 0.00 | 51 | 1017.6 |
| 20260504211321 | 59 | 296 | 1.7 | 2.6 | 0.00 | 0.00 | 0.00 | 51 | 1017.6 |
| 20260504210821 | 59 | 294 | 1.7 | 2.6 | 0.00 | 0.00 | 0.00 | 50 | 1017.8 |
| 20260504210339 | 59 | 274 | 1.7 | 3.5 | 0.00 | 0.00 | 0.00 | 50 | 1017.9 |
| 20260504205818 | 59 | 294 | 1.7 | 3.5 | 0.00 | 0.00 | 0.00 | 51 | 1017.9 |
| 20260504205316 | 59 | 317 | 0.9 | 2.6 | 0.00 | 0.00 | 0.00 | 50 | 1017.9 |
| 20260504204815 | 59 | 306 | 0.9 | 2.6 | 0.00 | 0.00 | 0.00 | 50 | 1017.9 |
| 20260504204314 | 59 | 310 | 0.9 | 1.7 | 0.00 | 0.00 | 0.00 | 49 | 1017.9 |
| 20260504203830 | 59 | 304 | 0.9 | 2.6 | 0.00 | 0.00 | 0.00 | 50 | 1017.9 |
| 20260504203350 | 60 | 321 | 0.0 | 2.6 | 0.00 | 0.00 | 0.00 | 48 | 1018.0 |
| 20260504202828 | 60 | 327 | 1.7 | 3.5 | 0.00 | 0.00 | 0.00 | 47 | 1018.0 |
| 20260504202327 | 59 | 296 | 1.7 | 3.5 | 0.00 | 0.00 | 0.00 | 48 | 1017.9 |
| 20260504201827 | 59 | 274 | 1.7 | 2.6 | 0.00 | 0.00 | 0.00 | 48 | 1017.8 |
| 20260504201347 | 60 | 265 | 1.7 | 1.7 | 0.00 | 0.00 | 0.00 | 48 | 1017.8 |
| 20260504200826 | 60 | 317 | 0.9 | 1.7 | 0.00 | 0.00 | 0.00 | 48 | 1017.7 |
| 20260504200347 | 60 | 329 | 0.9 | 2.6 | 0.00 | 0.00 | 0.00 | 48 | 1017.7 |
| 20260504195826 | 60 | 321 | 1.7 | 2.6 | 0.00 | 0.00 | 0.00 | 47 | 1017.7 |
| 20260504195326 | 60 | 304 | 0.9 | 1.7 | 0.00 | 0.00 | 0.00 | 47 | 1017.7 |
| 20260504194825 | 60 | 316 | 0.9 | 1.7 | 0.00 | 0.00 | 0.00 | 47 | 1017.7 |
| 20260504194345 | 60 | 310 | 0.9 | 2.6 | 0.00 | 0.00 | 0.00 | 47 | 1017.6 |
| 20260504193824 | 60 | 338 | 1.7 | 2.6 | 0.00 | 0.00 | 0.00 | 47 | 1017.6 |
| 20260504193324 | 60 | 294 | 1.7 | 2.6 | 0.00 | 0.00 | 0.00 | 48 | 1017.6 |
| 20260504192823 | 60 | 293 | 1.7 | 2.6 | 0.00 | 0.00 | 0.00 | 47 | 1017.5 |
| 20260504192323 | 60 | 316 | 1.7 | 2.6 | 0.00 | 0.00 | 0.00 | 47 | 1017.6 |
| 20260504191821 | 60 | 309 | 0.9 | 2.6 | 0.00 | 0.00 | 0.00 | 47 | 1017.5 |
| 20260504191322 | 60 | 313 | 0.9 | 2.6 | 0.00 | 0.00 | 0.00 | 47 | 1017.5 |
| 20260504190841 | 61 | 289 | 0.0 | 2.6 | 0.00 | 0.00 | 0.00 | 48 | 1017.5 |
| 20260504190320 | 61 | 292 | 1.7 | 3.5 | 0.00 | 0.00 | 0.00 | 48 | 1017.3 |
| 20260504185820 | 61 | 291 | 1.7 | 3.5 | 0.00 | 0.00 | 0.00 | 47 | 1017.4 |
| 20260504185320 | 61 | 275 | 2.6 | 3.5 | 0.00 | 0.00 | 0.00 | 46 | 1017.4 |
| 20260504184817 | 61 | 294 | 3.5 | 3.5 | 0.00 | 0.00 | 0.00 | 48 | 1017.3 |
| 20260504184317 | 61 | 292 | 3.5 | 3.5 | 0.00 | 0.00 | 0.00 | 49 | 1017.3 |
| 20260504183815 | 61 | 293 | 2.6 | 4.3 | 0.00 | 0.00 | 0.00 | 50 | 1017.4 |
| 20260504183322 | 61 | 301 | 3.5 | 4.3 | 0.00 | 0.00 | 0.00 | 49 | 1017.3 |
| 20260504182821 | 61 | 286 | 2.6 | 4.3 | 0.00 | 0.00 | 0.00 | 50 | 1017.3 |
| 20260504182322 | 61 | 287 | 3.5 | 4.3 | 0.00 | 0.00 | 0.00 | 49 | 1017.4 |
| 20260504181822 | 62 | 292 | 2.6 | 5.2 | 0.00 | 0.00 | 0.00 | 48 | 1017.3 |
| 20260504181322 | 62 | 275 | 1.7 | 3.5 | 0.00 | 0.00 | 0.00 | 48 | 1017.3 |
| 20260504180822 | 62 | 327 | 0.9 | 2.6 | 0.00 | 0.00 | 0.00 | 48 | 1017.5 |
| 20260504180322 | 62 | 295 | 0.9 | 1.7 | 0.00 | 0.00 | 0.00 | 48 | 1017.5 |
| 20260504175822 | 63 | 284 | 0.9 | 1.7 | 0.00 | 0.00 | 0.00 | 49 | 1017.4 |
| 20260504175342 | 63 | 284 | 0.0 | 1.7 | 0.00 | 0.00 | 0.00 | 49 | 1017.4 |
| 20260504174821 | 63 | 284 | 0.9 | 2.6 | 0.00 | 0.00 | 0.00 | 49 | 1017.3 |
| 20260504174321 | 63 | 281 | 0.9 | 2.6 | 0.00 | 0.00 | 0.00 | 48 | 1017.4 |
| 20260504173819 | 63 | 277 | 1.7 | 2.6 | 0.00 | 0.00 | 0.00 | 49 | 1017.5 |
| 20260504173319 | 64 | 331 | 0.9 | 2.6 | 0.00 | 0.00 | 0.00 | 48 | 1017.5 |
| 20260504172838 | 64 | 328 | 1.7 | 2.6 | 0.00 | 0.00 | 0.00 | 47 | 1017.4 |
| 20260504172317 | 64 | 5 | 1.7 | 3.5 | 0.00 | 0.00 | 0.00 | 47 | 1017.5 |
| 20260504171816 | 64 | 29 | 1.7 | 3.5 | 0.00 | 0.00 | 0.00 | 47 | 1017.5 |
| 20260504171315 | 64 | 61 | 1.7 | 3.5 | 0.00 | 0.00 | 0.00 | 47 | 1017.5 |
| 20260504170843 | 64 | 51 | 2.6 | 3.5 | 0.00 | 0.00 | 0.00 | 46 | 1017.3 |
| 20260504170320 | 64 | 53 | 1.7 | 3.5 | 0.00 | 0.00 | 0.00 | 46 | 1017.3 |
| 20260504160326 | 65 | 169 | 0.0 | 7.0 | 0.00 | 0.00 | 0.00 | 43 | 1017.6 |
| 20260504150819 | 64 | 254 | 7.8 | 12.2 | 0.00 | 0.00 | 0.00 | 47 | 1017.8 |
| 20260504150320 | 64 | 266 | 7.8 | 13.9 | 0.00 | 0.00 | 0.00 | 46 | 1017.7 |
| 20260504141318 | 66 | 117 | 0.9 | 6.1 | 0.00 | 0.00 | 0.00 | 47 | 1017.9 |
| 20260504140838 | 66 | 115 | 2.6 | 7.0 | 0.00 | 0.00 | 0.00 | 49 | 1017.7 |
| 20260504140314 | 66 | 111 | 3.5 | 7.0 | 0.00 | 0.00 | 0.00 | 47 | 1017.7 |
| 20260504130317 | 67 | 32 | 1.7 | 3.5 | 0.00 | 0.00 | 0.00 | 46 | 1018.3 |
| 20260504110358 | 66 | 92 | 5.2 | 7.8 | 0.00 | 0.00 | 0.00 | 45 | 1019.0 |
| 20260504100330 | 65 | 83 | 4.3 | 7.8 | 0.00 | 0.00 | 0.00 | 50 | 1019.2 |